157P/Tritton (2003)

Japanese version
Home page
Updated on May 23, 2004

---------------------------------------------------------------------

* Profile

Designation 157P/2003 T1
Rediscovery Date October 6, 2003
Magnitude 12.4 mag
Rediscoverer Charles W. Juels (Fountain Hills, AZ), Paulo R. Holvorcem (Campinas, Brazil)

* Pictures

* Orbital Elements

Epoch 2003 Oct. 8.0 TT = JDT 2452920.5
T 2003 Sept. 24.30774 TT                                MPC
q   1.4210982            (2000.0)            P               Q
n   0.15283281     Peri.  147.42329     +0.02866670     -0.99390149
a   3.4646416      Node   300.72966     +0.88853059     +0.07413640
e   0.5898282      Incl.    7.11572     +0.45792096     -0.08163107
P   6.45

* Finding Charts

* Magnitudes Graph

        m1 =  13.0 + 5 log d +  20.0 log r  [  ,-2]  (             - 2003 Sept.22)
        m1 = 127.2 + 5 log d - 750   log r  [-2,15]  (2003 Sept.22 - 2003 Oct.  9)
        m1 = -12.5 + 5 log d + 150   log r  [15,50]  (2003 Oct.  9 - 2003 Nov. 13)
        m1 =   9.7 + 5 log d +  28.5 log r  [50,  ]  (2003 Nov. 13 -             )

---------------------------------------------------------------------

The orbital elements are published on M.P.E.C. 2003-T37.
The charts are made with StellaNavigator Ver.2.0 for Windows (AstroArts / ASCII).
The magnitudes graphs are made with Comet for Windows.

---------------------------------------------------------------------

Copyright(C) Seiichi Yoshida (comet@aerith.net). All rights reserved.